Location:  
MeteoStar


Sort by weather type Sort by elevation Sort by visibility Sort from west to east north Sort from north to south Alphabetically Sort from strongest wind speed Sort from lowest to highest pressure Sort from highest to lowest dew point temperature Sort coolest temperatures to warmest Sort warm temperatures to coolest
 Metric

Current Observations for United Kingdom sorted north->south

Baltasound05:00ZNot Avail.52 51201006.9SSW 10 4949
Lerwick05:00ZCloudy52 50301007.4WSW 13 48269
Sumburgh Cape 05:20ZMostly Cloudy54 52251008.1SW 7 5216
Fair Isle05:00ZClear53 51141008.5SSW 12 49187
Kirkwall Airport05:00ZNot Avail.52 48251007.9S 9 4968
Wick05:00ZNot Avail.52 49201008.2S 11 48127
Altnaharra05:00ZNot Avail.52 46251007.4S 7 50265
Stornoway05:00ZNot Avail.55 51351005.0S 15 5529
Aultbea05:00ZNot Avail.56 47301006.2S 9 5636
Tain Range05:00ZNot Avail.50 47201008.2S 6 4813
Loch Glascanoch05:00ZNot Avail.49 45301007.7ESE 5 47869
Lossiemouth05:00ZMostly Cloudy49 44351009SE 6 4642
Kinloss05:00ZNot Avail.52 45201008.7S 7 5022
Inverness / Dalcross05:20ZClear50 45301008.1CALM5029
Benbecula05:20ZLight Rain54 5241003.1SSE 16 5019
South Uist Range05:00ZClear53 51251004SSE 18 Gusting to 30 4832
Aviemore05:00ZNot Avail.50 46201009NE 3 50721
Aberdeen / Dyce05:00ZNot Avail.46 42301010.4ESE 3 46213
Cairngorm05:00ZNot Avail.38 3820S 30 Gusting to 39 264084
Aboyne05:00ZNot Avail.40 40111010.5E 3 40459
Cairnwell05:00ZNot Avail.40 N/A20SSW 20 Gusting to 25 3061
Tulloch Bridge05:00ZNot Avail.53 46301009.4WSW 6 51777
Inverbervie05:00ZNot Avail.50 47201010.7WSW 12 45439
Tiree05:00ZRain53 5121005.5S 21 Gusting to 31 4739
Glen Ogle05:00ZNot Avail.46 4525S 20 Gusting to 29 381850
Leuchars05:00ZNot Avail.53 48201011.2SSW 7 5139
Strathallan05:00ZNot Avail.51 49251010.9SW 1 51114
Edinburgh Airport05:20ZClear55 48301010.1SSW 7 55134
Glasgow Airport05:20ZLight Rain54 50301010.1SSE 6 5226
Charterhall05:00ZNot Avail.49 47301012.5SW 5 47367
Drumalbin05:00ZNot Avail.52 49101011.4SSW 13 48803
Prestwick Rnas05:00ZLight Rain54 5241010.5SSE 6 5285
Prestwick Airport05:50ZLight Rain54 5241010.1SSE 5 5365
Machrihanish05:00ZNot Avail.53 5121009.2SSE 10 5042
Boulmer05:00ZNot Avail.48 46251013.5SW 4 4775
Eskdalemuir05:00ZNot Avail.50 49201013.0SSE 5 48793
Redesdale05:00ZNot Avail.46 44301014.0SSW 1 46692
Ballypatrick Forest05:00ZRain51 4941008.2SSW 12 Gusting to 23 47511
Spadeadam05:00ZNot Avail.45 42251013.7SSE 3 45935
Newcastle 05:20ZNot Avail.48 4551013.2N 1 48265
Carlisle05:00ZNot Avail.52 47401013.2N 5291
Portglenone05:00ZRain52 5141008.4SSE 15 47209
West Freugh05:00ZRain54 5361011.2S 12 5036
Dundrennan05:00ZRain56 5571012.2SSW 14 56374
Lough Fea05:00ZRain50 5021008.9SSE 13 45738
Castlederg05:00ZLight Rain53 52251007.0SSE 3 53167
Belfast / Aldergrove Airport05:00ZHeavy Rain52 512.751009.5SSE 12 48265
Keswick05:00ZNot Avail.55 50121013.5E 3 55265
Belfast / Harbour05:20ZRain52 522.251009.1S 8 4916
Loftus Samos05:00ZNot Avail.47 44351014.9SSW 4 45190
Warcop Range05:00ZNot Avail.51 48301014.2SE 8 48744
Saint Bees Head05:00ZNot Avail.56 53121013.2S 17 56406
Tees-Side05:20ZClear45 4351015.1SSW 3 45121
Shap05:00ZNot Avail.49 48111014.4SSE 8 46816
Fylingdales05:00ZNot Avail.45 4335SW 8 41859
Leeming05:00ZNot Avail.47 44141015.0SE 7 44131
Glenanne05:00ZLight Drizzle51 5181009.0SSW 15 Gusting to 26 46528
Bridlington Mrsc05:00ZNot Avail.48 44351015W 5 4649
Isle Of Man / Ronaldsway Airport05:00ZRain56 5451012.7SSW 10 5655
Linton-On-Ouse05:00ZNot Avail.46 44201015.5ESE 4 4452
Leeds And Bradford05:20ZNot Avail.50 46251015.2SW 4 49682
Bingley05:00ZNot Avail.49 4671015.7SSW 6 46859
Blackpool Airport05:00ZNot Avail.53 4825S 9 5032
Humberside05:20ZClear50 46251016.1SSW 6 48101
Crosby05:00ZNot Avail.55 48201014.7S 5 5526
Donna Nook05:00ZNot Avail.47 4581015.9SW 6 4426
Manchester Airport05:20ZClear50 482.251015.2S 4 49226
Liverpool Airport 05:20ZNot Avail.52 48301015.1SSE 4 5185
Rhyl05:00ZNot Avail.57 49201014.7S 7 57252
Valley05:00ZLight Rain58 54121014.2SSW 21 Gusting to 26 583
Waddington05:00ZNot Avail.51 44151016.5WSW 5 49223
Hawarden05:00ZNot Avail.48 46201015.5S 5 4632
Capel Curig05:00ZLight Rain55 5271014.7SW 17 55708
Wainfleet05:00ZNot Avail.45 43201016.4W 6 429
Coningsby Royal Air Force Base05:00ZClear46 43251016.5SW 3 4622
Cranwell05:00ZNot Avail.46 42161016.7SW 4 44219
Nottingham Weather Centre05:00ZNot Avail.48 45201016.7WSW 3 48383
Weybourne05:00ZNot Avail.51 48301016.2SSW 7 4868
Holbeach05:00ZNot Avail.44 42301016.5WSW 4 429
East Midlands05:20ZClear50 4551016.2N 3 50308
Shawbury05:00ZNot Avail.48 46141016.2SW 2 48249
Aberdaron05:00ZNot Avail.57 56161015.4SSW 16 57311
Lake Vyrnwy05:00ZNot Avail.49 48201016.0S 2 491181
Marham05:00ZPatchy Fog46 4571016.7SSE 3 4675
Norwich Weather Centre05:20ZClear52 46351016.1SW 4 5145
Wittering05:00ZNot Avail.47 43251016.5W 4 45275
Birmingham / Airport05:20ZNot Avail.46 452.251016.2SE 2 46324
Church Lawford05:00ZNot Avail.46 45201017SW 2 46351
Trawscoed05:00ZLight Showers51 49301016.2SE 4 50206
Shobdon05:00ZNot Avail.43 42251017.4N 1 43324
Bedford05:00ZNot Avail.47 44251017WSW 1 47278
Pershore05:00ZNot Avail.46 45251017.5WNW 1 46104
Aberporth05:00ZLight Showers53 51201015.9S 10 50436
Wattisham05:00ZNot Avail.52 51171017.2WSW 2 52285
Sennybridge05:00ZNot Avail.48 47251017.4S 2 481007
Stansted Airport05:20ZClear52 50351017.1CALM52347
Little Rissington05:00ZNot Avail.48 44251017.2WNW 5 46705
Luton Airport 05:20ZClear50 45301017.1SSE 1 50524
Brize Norton05:00ZMostly Cloudy49 44201017.2WSW 2 49288
Pembrey Sands05:00ZNot Avail.54 50351016.7SE 5 539
Milford Haven05:00ZNot Avail.59 53451016.0SSW 9 59144
High Wicombe Hqstc05:00ZNot Avail.52 48251017.0SSE 3 52669
Great Dun Fell05:00ZNot Avail.44 N/A30SW 24 Gusting to 30 2778
Mumbles05:00ZNot Avail.54 50451017.7NE 4 53114
Southend-On-Sea 05:20ZNot Avail.48 46251017.1SSW 2 4849
Shoeburyness05:00ZFog49 492.51017NNW 4 486
Northolt05:00ZNot Avail.49 46191017.0NW 2 49124
London City Airport05:20ZClear59 54251017.1CALM5916
Lyneham05:00ZNot Avail.49 44301017.7SSW 4 48475
London / Heathrow Airport05:00ZNot Avail.52 48251017.0NW 2 5278
Cardiff-Wales Airport05:20ZClear52 45301017.1N 1 52219
Bristol / Lulsgate 05:20ZClear50 46301017.2WSW 4 49620
Manston05:00ZNot Avail.54 48251017.0E 4 53180
Biggin Hill 05:20ZNot Avail.55 52251017.0SSE 7 55600
Kenley05:00ZNot Avail.54 50301017.2S 3 54557
Farnborough05:00ZNot Avail.45 43301017.4CALM45213
Odiham05:00ZNot Avail.49 44201017.5SSW 2 49403
Larkhill05:00ZNot Avail.48 44201017.5W 3 48433
Boscombe Down05:00ZNot Avail.48 43301017.5NW 4 47406
Middle Wallop05:00ZClear48 43451017.5WNW 3 48298
London / Gatwick Airport05:20ZNot Avail.52 48251017.1S 2 52203
Langdon Bay05:00ZNot Avail.54 54301017.2ENE 4 53383
Liscombe05:00ZNot Avail.49 48201017.9W 1 491141
Chivenor05:00ZNot Avail.51 48301017.5E 6 4926
Yeovilton05:00ZNot Avail.45 44301017.9ESE 2 4575
Lydd Airport 05:20ZClear52 52251017.1N 3 529
Herstmonceux05:00ZNot Avail.52 51141017.0ENE 2 52170
Southampton / Weather Centre05:50ZNot Avail.50 48171017.1CALM5029
Dunkeswell Aerodrome05:00ZNot Avail.50 48251018W 2 50826
Shoreham Airport05:00ZNot Avail.49 47251017.0N 6 466
Thorney Island05:00ZNot Avail.51 48301017.0NNW 2 5113
Bournemouth Airport05:00ZNot Avail.45 43171017.7WNW 3 4536
Saint Catherines Point05:00ZNot Avail.54 44251017NW 4 5352
Isle Of Portland05:00ZNot Avail.57 51251017.7NW 6 57173
Cardinham05:00ZNot Avail.49 48301018.0S 3 49656
Plymouth05:00ZNot Avail.50 49141018.2E 4 49164
Camborne05:00ZNot Avail.53 51351018.2SSE 5 52285
Culdrose05:00ZNot Avail.52 50171018.2SSW 5 51255
Guernsey Airport05:00ZClear54 53301018.9NNW 4 53334
Jersey Airport05:00ZNot Avail.54 51251018.7NNW 4 53275

Atlantic
Tropical Watch